Find Starlink 37300

NORAD ID: 68682 Int'l Des: 2026-077 Owner: SPXS Country: US Constellation: starlink operational
LEOCIRCULARRETROGRADE

現在のビュー

3D地球を読み込み中...

Starlink 37300について

説明を読み込み中...

次回通過

Passes for default location (London). Set your location on the main map for personalized predictions.

高度履歴

Loading altitude history...

軌道要素

1 68682U 26077W 26146.59980979 .00022457 00000-0 69646-3 0 9991
2 68682 97.2862 18.2450 0001688 79.5800 280.5633 15.33416832 7109
Epoch: May 26, 2026 • Age: 9 hours

現在のステータス

高度 479.2 km
速度 7.62 km/s
衛星直下点 -34.68°S, 144.51°E
打ち上げ日 Apr 11, 2026
運用期間 0.1 years
タイプ internet

技術仕様

分類 Payload
質量 575.00 kg
乾燥質量 530.00 kg
総質量 575.00 kg
長さ 0.30 m
直径 4.10 m
スパン 29.00 m
形状 Box + pan
製造者 SPXS
バスタイプ Starlink V2MO
フェーズステータス In Orbit
所有者/国 SPXS/US

Most Searched